Home > Weather > Hollywood > Past weeks

Flag for USA Weather for the Past 2 Weeks in Hollywood, California, USA

Now
64 °F

Broken clouds.


Feels Like: 64 °F
Forecast: 55 / 65 °F
Wind: 10 mph from South

Location: Bob Hope Airport

Current Time: May 5, 2016 at 12:15:18 PM

Latest Report: May 5, 2016 at 10:53 AM


Visibility: 10 mi

Pressure: 29.87 "Hg

Humidity: 58%

Dew Point: 49 °F

Location of HollywoodLocation

Historic Weather in Hollywood — Graph

°F

Hollywood Temperature Yesterday

Maximum temperature yesterday: 70 °F (at 1:53 PM)
Minimum temperature yesterday: 55 °F (at 5:00 AM)
Average temperature yesterday: 61 °F

High & Low Weather Summary for the Past Weeks

 TemperatureHumidityPressure
High85 °F (Apr 20, 1:53 PM)90% (May 4, 5:53 AM)30.01 "Hg (May 4, 5:53 AM)
Low47 °F (Apr 26, 5:53 AM)8% (Apr 20, 1:53 PM)29.70 "Hg (Apr 27, 7:53 PM)
Average63 °F54%29.88 "Hg
* Reported Apr 20 10:53 AM — May 5 10:53 AM, Hollywood, Weather by CustomWeather, © 2016

Note: Actual official high and low records may vary slightly from our data, if they occured in-between our weather recording intervals... More about our weather records

Advertising

Hollywood Weather History for the Previous 24 Hours

Scroll right to see more
 ConditionsComfort  
Time TempWeatherWind HumidityBarometerVisibility
10:53 AM
Thu, May 5
64 °FBroken clouds.10 mph58%29.87 "Hg10 mi
9:53 AM61 °FOvercast.5 mph65%29.88 "Hg10 mi
8:53 AM60 °FPartly sunny.6 mph65%29.88 "Hg10 mi
7:53 AM58 °FOvercast.5 mph72%29.88 "Hg10 mi
6:53 AM57 °FPassing clouds.No wind74%29.88 "Hg10 mi
5:53 AM57 °FOvercast.5 mph78%29.86 "Hg10 mi
4:53 AM57 °FOvercast.3 mph74%29.87 "Hg10 mi
3:53 AM57 °FOvercast.3 mph74%29.88 "Hg10 mi
2:53 AM57 °FOvercast.No wind74%29.88 "Hg10 mi
1:53 AM57 °FOvercast.3 mph78%29.88 "Hg10 mi
12:53 AM57 °FOvercast.7 mph78%29.90 "Hg10 mi
11:53 PM
Wed, May 4
58 °FOvercast.5 mph75%29.90 "Hg10 mi
10:53 PM58 °FOvercast.3 mph75%29.91 "Hg10 mi
9:53 PM58 °FOvercast.7 mph75%29.91 "Hg10 mi
8:53 PM57 °FClear.8 mph78%29.90 "Hg10 mi
7:53 PM59 °FSunny.10 mph72%29.87 "Hg10 mi
6:53 PM61 °FSunny.13 mph70%29.85 "Hg10 mi
5:53 PM66 °FSunny.12 mph59%29.84 "Hg10 mi
4:53 PM68 °FSunny.9 mph57%29.84 "Hg10 mi
3:53 PM68 °FSunny.8 mph57%29.86 "Hg10 mi
2:53 PM68 °FSunny.12 mph59%29.87 "Hg6 mi
1:53 PM70 °FSunny.12 mph57%29.88 "Hg10 mi
12:53 PM67 °FSunny.8 mph63%29.89 "Hg6 mi
Weather by CustomWeather, © 2016

See weather overviewHow to use our weather pages